GEFSMW_con_cape1000_072.txt.gz
Probability
68 74 68 74 68 74 68 68 68 58 55 42 26 23 13 13 6 6 6 6 3 3 6 3 0 3 3 6 0 10 6 6 6 6 6 10 13 13 19 19 13 16 19
65 68 71 61 58 52 52 58 61 42 42 39 35 26 16 10 6 6 3 3 3 3 0 0 0 0 0 0 0 0 3 0 0 0 6 3 13 16 10 16 26 16 19
42 45 39 35 45 52 42 23 42 48 42 29 26 13 23 13 0 3 3 3 0 0 0 0 0 0 0 0 0 0 0 0 0 0 0 0 0 3 6 3 6 6 19
13 19 26 23 29 39 42 42 42 42 48 42 23 0 10 6 0 0 0 0 0 0 0 0 0 0 0 0 0 0 0 0 0 0 0 3 3 0 0 0 0 3 3
16 23 26 32 32 32 35 45 48 48 52 42 32 29 10 6 0 0 0 0 0 0 0 0 0 0 0 0 0 0 0 0 0 0 0 0 0 0 0 3 3 0 0
13 16 23 39 48 45 48 48 52 58 52 39 26 19 16 13 6 6 0 0 0 0 0 0 0 0 0 0 0 0 0 0 0 0 0 0 0 0 0 0 0 6 3
10 19 26 26 45 48 48 39 45 39 29 26 23 16 13 10 6 6 3 0 0 0 0 0 0 0 0 0 0 0 0 0 0 0 0 0 0 0 0 0 0 0 3
10 10 23 32 39 23 26 16 19 23 13 16 10 10 6 3 3 0 0 0 0 0 0 0 0 0 0 0 0 0 0 0 0 0 0 0 0 0 0 0 0 0 0
3 0 3 10 16 10 13 10 10 3 3 3 3 3 3 0 0 0 0 0 0 0 0 0 0 0 0 0 0 0 0 0 0 0 0 0 0 0 0 0 0 0 0
3 0 0 3 3 10 10 6 6 3 3 3 3 0 0 0 0 0 0 0 0 0 0 0 0 0 0 0 0 0 0 0 0 0 0 0 0 0 0 0 0 0 0
0 0 0 0 6 6 6 3 3 3 3 0 0 0 0 0 0 0 0 0 0 0 0 0 0 0 0 0 0 0 0 0 0 0 0 0 0 0 0 0 0 0 0
0 0 0 0 0 0 0 0 0 0 0 0 0 0 0 0 0 0 0 0 0 0 0 0 0 0 0 0 0 0 0 0 0 0 0 0 0 0 0 0 0 0 0
0 0 0 0 0 0 0 0 0 0 0 0 0 0 0 0 0 0 0 0 0 0 0 0 0 0 0 0 0 0 0 0 0 0 0 0 0 0 0 0 0 0 0
3 3 3 0 0 0 0 0 0 0 0 0 0 0 0 0 0 0 0 0 0 0 0 0 0 0 0 0 0 0 0 0 0 0 0 0 0 0 0 0 0 0 0
3 3 0 0 0 0 0 0 0 0 0 0 0 0 0 0 0 0 0 0 0 0 0 0 0 0 0 0 0 0 0 0 0 0 0 0 0 0 0 0 0 0 0
0 0 0 0 0 0 0 0 0 0 0 0 0 0 0 0 0 0 0 0 0 0 0 0 0 0 0 0 0 0 0 0 0 0 0 0 0 0 0 0 0 0 0
0 0 0 0 0 0 0 0 0 0 0 0 0 0 0 0 0 0 0 0 0 0 0 0 0 0 0 0 0 0 0 0 0 0 0 0 0 0 0 0 0 0 0
0 0 0 0 0 0 0 0 0 0 0 0 0 0 0 0 0 0 0 0 0 0 0 0 0 0 0 0 0 0 0 0 0 0 0 0 0 0 0 0 0 0 0
0 0 0 0 0 0 0 0 0 0 0 0 0 0 0 0 0 0 0 0 0 0 0 0 0 0 0 0 0 0 0 0 0 0 0 0 0 0 0 0 0 0 0
0 0 0 0 0 0 0 0 0 0 0 0 0 0 0 0 0 0 0 0 0 0 0 0 0 0 0 0 0 0 0 0 0 0 0 0 0 0 0 0 0 0 0
0 0 0 0 0 0 0 0 0 0 0 0 0 0 0 0 0 0 0 0 0 0 0 0 0 0 0 0 0 0 0 0 0 0 0 0 0 0 0 0 0 0 0
0 0 0 0 0 0 0 0 0 0 0 0 0 0 0 0 0 0 0 0 0 0 0 0 0 0 0 0 0 0 0 0 0 0 0 0 0 0 0 0 0 0 0
0 0 0 0 0 0 0 0 0 0 0 0 0 0 0 0 0 0 0 0 0 0 0 0 0 0 3 0 0 0 0 0 0 0 0 0 0 0 0 0 0 0 0
0 0 0 0 0 0 0 0 0 0 0 0 0 0 0 0 0 0 0 0 0 0 0 0 0 0 6 3 0 0 0 0 0 0 0 0 0 0 0 0 0 0 3
0 0 0 0 0 0 0 0 0 0 0 0 0 0 0 0 0 0 0 0 0 0 0 0 0 0 0 0 0 0 0 0 0 0 0 0 0 0 0 0 0 0 0
0 0 0 0 0 0 0 0 0 0 0 0 0 0 0 0 0 0 0 0 0 0 0 0 0 0 0 0 0 0 0 0 0 0 0 0 0 0 0 0 0 0 0

GEFSMW_con_cape1000_078.txt.gz
Probability
74 68 71 77 81 97 94 97 87 87 77 77 74 65 68 58 42 42 29 13 10 3 3 3 3 3 6 13 6 10 6 10 16 3 6 6 10 16 26 26 23 23 23
65 65 68 65 68 90 90 90 94 90 84 71 68 71 65 55 52 48 29 6 6 6 0 13 3 3 6 3 6 6 3 3 0 3 3 3 3 13 6 13 23 16 29
61 58 55 48 71 87 84 74 90 87 71 65 65 58 55 52 52 39 39 13 6 6 6 6 3 0 3 0 3 0 0 0 0 0 0 0 0 3 6 6 6 16 16
45 45 39 45 55 77 74 87 94 90 74 68 61 55 58 42 32 35 29 16 16 6 6 6 0 3 0 0 0 0 0 0 0 0 0 0 0 0 0 3 3 6 10
29 35 35 58 55 55 61 84 94 87 77 65 58 61 52 39 35 29 26 23 10 6 10 6 3 3 0 0 0 0 0 0 0 0 0 0 0 0 0 0 0 0 0
19 29 35 58 61 52 52 65 90 84 77 61 61 55 39 29 23 13 16 10 10 6 6 3 6 6 0 0 0 0 0 0 0 0 0 0 0 0 0 0 0 0 0
23 26 19 48 61 61 55 68 84 84 68 58 35 29 26 19 19 13 13 10 10 6 3 3 6 3 0 0 0 0 0 0 0 0 0 0 0 0 0 0 0 0 0
26 19 29 42 58 48 68 74 74 71 48 42 29 26 19 16 16 6 10 6 6 0 0 0 0 0 0 0 0 0 0 0 0 0 0 0 0 0 0 0 0 0 0
23 16 16 19 39 45 52 39 58 45 29 13 16 13 13 10 6 6 6 0 0 0 0 0 0 0 0 0 0 0 0 0 0 0 0 0 0 0 0 0 0 0 0
6 6 3 10 29 29 35 26 29 26 19 10 13 3 13 10 6 3 0 0 0 0 0 0 0 0 0 0 0 0 0 0 0 0 0 0 0 0 0 0 0 0 0
3 0 6 13 23 19 19 16 19 19 16 6 6 6 6 6 3 3 0 0 0 0 0 0 0 0 0 0 0 0 0 0 0 0 0 0 0 0 0 0 0 0 0
3 0 6 10 13 6 13 13 10 10 6 3 3 3 3 0 0 0 0 0 0 0 0 0 0 0 0 0 0 0 0 0 0 0 0 0 0 0 0 0 0 0 0
0 0 16 13 3 6 10 6 3 3 3 3 3 0 0 0 3 3 3 0 0 0 0 0 0 0 0 0 0 0 0 0 0 0 0 0 0 0 0 0 0 0 0
6 6 19 16 10 10 6 3 3 3 3 3 0 0 0 0 3 0 0 0 3 0 0 0 0 0 0 0 0 0 0 0 0 0 0 0 0 0 0 0 0 0 0
6 16 13 16 13 10 10 3 3 3 0 0 0 0 0 0 0 0 0 3 3 0 0 0 0 0 0 0 0 0 0 0 0 0 0 0 0 0 0 0 0 0 0
10 16 13 16 16 13 6 3 0 0 0 0 0 0 0 0 0 0 0 0 0 0 0 0 0 0 0 0 0 0 0 0 0 0 0 0 0 0 0 0 0 0 0
0 6 13 16 23 16 13 13 3 0 0 0 0 0 0 0 0 0 0 0 0 0 0 0 0 0 0 0 0 0 0 0 0 0 0 0 0 0 0 0 0 0 0
0 3 3 6 10 13 6 6 0 0 0 0 0 0 0 0 0 0 0 0 6 0 6 3 3 0 0 0 0 0 0 0 0 0 0 0 0 0 0 0 0 0 0
10 6 3 0 0 0 0 6 3 0 0 0 0 0 0 0 0 0 0 3 13 6 3 3 3 3 0 0 0 0 0 0 0 0 0 0 0 0 0 0 0 0 0
6 0 0 0 0 0 0 6 0 0 0 0 0 0 3 3 0 0 6 3 13 6 3 0 0 0 0 0 0 0 0 0 0 0 0 0 0 0 0 0 0 0 0
6 16 6 3 6 10 16 13 10 10 3 0 0 0 0 3 6 3 10 19 3 3 3 3 0 3 0 0 0 0 0 0 0 0 0 0 0 0 0 0 0 0 0
6 13 29 39 35 29 32 23 16 13 10 6 6 3 10 0 0 3 16 19 10 3 0 0 0 0 0 0 0 0 0 0 0 0 0 0 0 0 0 0 0 0 0
29 26 39 45 39 32 35 29 32 29 10 10 10 10 10 13 13 13 6 10 10 0 0 0 0 0 3 0 0 0 0 0 0 0 0 0 0 0 0 0 0 0 0
23 35 32 35 39 32 29 35 35 26 19 16 19 16 16 16 16 10 3 0 0 0 0 0 0 0 0 0 0 0 0 0 0 0 0 0 0 0 0 0 0 0 0
35 29 35 35 29 35 29 23 26 26 26 16 16 10 6 0 16 13 3 3 3 0 0 0 0 0 0 0 0 0 0 0 0 0 0 0 0 0 0 0 0 0 0
39 32 35 29 26 26 23 32 26 19 23 3 6 0 0 0 0 0 0 0 0 0 0 0 0 0 0 0 0 0 0 0 0 0 0 0 0 0 0 0 0 0 0

GEFSMW_con_cape1000_084.txt.gz
Probability
39 55 58 58 55 48 45 35 29 29 23 26 16 13 10 3 3 0 0 0 0 0 0 0 0 0 0 0 0 0 0 0 0 0 0 0 0 0 0 0 0 0 0
42 52 52 55 52 42 39 35 26 23 13 13 10 6 6 0 0 0 0 0 0 0 0 0 0 0 0 0 0 0 0 0 0 0 0 0 0 0 0 0 0 0 0
35 52 48 48 42 35 32 29 26 23 13 6 6 6 0 0 0 0 0 0 0 0 0 0 0 0 0 0 0 0 0 0 0 0 0 0 0 0 0 0 0 0 0
35 29 35 32 35 35 26 23 19 16 13 6 3 3 0 0 0 0 0 0 0 0 0 0 0 0 0 0 0 0 0 0 0 0 0 0 0 0 0 0 0 0 0
29 23 26 26 32 23 23 19 16 16 13 3 3 0 0 0 0 0 0 0 0 0 0 0 0 0 0 0 0 0 0 0 0 0 0 0 0 0 0 0 0 0 0
23 23 19 19 19 19 19 16 13 16 16 10 6 3 3 0 0 0 0 0 0 0 0 0 0 0 0 0 0 0 0 0 0 0 0 0 0 0 0 0 0 0 0
16 13 10 10 13 16 16 19 23 19 16 16 10 6 3 0 0 0 0 0 0 0 0 0 0 0 0 0 0 0 0 0 0 0 0 0 0 0 0 0 0 0 0
13 10 6 13 16 16 19 16 26 26 16 16 6 3 0 0 0 0 0 0 0 0 0 0 0 0 0 0 0 0 0 0 0 0 0 0 0 0 0 0 0 0 0
6 6 6 10 16 16 13 29 23 16 13 10 6 3 0 0 0 0 0 0 0 0 0 0 0 0 0 0 0 0 0 0 0 0 0 0 0 0 0 0 0 0 0
3 6 6 10 13 13 26 19 16 6 10 10 6 3 0 0 0 0 0 0 0 0 0 0 0 0 0 0 0 0 0 0 0 0 0 0 0 0 0 0 0 0 0
6 3 3 10 10 16 13 10 3 3 6 6 6 3 0 0 0 0 0 0 0 0 0 0 0 0 0 0 0 0 0 0 0 0 0 0 0 0 0 0 0 0 0
0 0 0 0 0 0 6 3 3 6 6 6 3 0 0 0 0 0 0 0 0 0 0 0 0 0 0 0 0 0 0 0 0 0 0 0 0 0 0 0 0 0 0
3 0 0 0 0 0 0 6 6 6 3 3 3 0 0 0 0 0 0 0 0 0 0 0 0 0 0 0 0 0 0 0 0 0 0 0 0 0 0 0 0 0 0
0 0 0 0 0 0 3 3 6 3 3 3 0 0 0 0 0 0 0 0 0 0 0 0 0 0 0 0 0 0 0 0 0 0 0 0 0 0 0 0 0 0 0
0 0 0 0 0 0 0 0 0 3 3 0 0 0 0 0 0 0 0 0 0 0 0 0 0 0 0 0 0 0 0 0 0 0 0 0 0 0 0 0 0 0 0
0 0 0 0 0 0 0 0 3 3 0 0 0 0 0 0 0 0 0 0 0 0 0 0 0 0 0 0 0 0 0 0 0 0 0 0 0 0 0 0 0 0 0
0 0 0 0 0 0 0 0 0 0 0 0 0 0 0 0 0 0 0 0 0 0 0 0 0 0 0 0 0 0 0 0 0 0 0 0 0 0 0 0 0 0 0
0 0 0 0 0 0 0 0 0 0 0 0 0 0 0 0 0 0 0 0 0 0 0 0 0 0 0 0 0 0 0 0 0 0 0 0 0 0 0 0 0 0 0
0 0 0 0 0 0 0 0 0 0 0 0 0 0 0 0 0 0 0 0 0 0 0 0 0 0 0 0 0 0 0 0 0 0 0 0 0 0 0 0 0 0 0
0 0 0 0 0 0 0 0 0 0 0 0 0 0 0 0 0 0 0 0 0 0 0 0 0 0 0 0 0 0 0 0 0 0 0 0 0 0 0 0 0 0 0
0 0 0 0 0 0 0 0 0 0 0 0 0 0 0 0 0 0 0 0 0 0 0 0 0 0 0 0 0 0 0 0 0 0 0 0 0 0 0 0 0 0 0
0 0 0 0 0 0 0 0 0 0 0 0 0 0 0 0 0 0 0 0 0 0 0 0 0 0 0 0 0 0 0 0 0 0 0 0 0 0 0 0 0 0 0
0 0 0 0 0 0 0 0 0 0 0 0 0 0 0 0 0 0 0 0 0 0 0 0 0 0 0 0 0 0 0 0 0 0 0 0 0 0 0 0 0 0 0
0 0 0 0 0 0 0 0 0 0 0 0 0 0 0 0 0 0 0 0 0 0 0 0 0 0 0 0 0 0 0 0 0 0 0 0 0 0 0 0 0 0 0
0 0 0 0 0 0 0 0 0 0 0 0 0 0 0 0 0 0 0 0 0 0 0 0 0 0 0 0 0 0 0 0 0 0 0 0 0 0 0 0 0 0 0
0 0 0 0 0 0 0 0 0 0 0 0 0 0 0 0 0 0 0 0 0 0 0 0 0 0 0 0 0 0 0 0 0 0 0 0 0 0 0 0 0 0 0

GEFSMW_con_cape1000_090.txt.gz
Probability
16 19 32 29 32 16 16 13 16 6 6 3 3 3 3 0 0 0 0 0 0 0 0 0 0 0 0 0 0 0 0 0 0 0 0 0 0 0 0 0 0 0 3
19 26 32 26 23 16 10 6 13 13 6 6 0 3 3 0 0 0 0 0 0 0 0 0 0 0 0 0 0 0 0 0 0 0 0 0 0 0 0 0 0 0 3
13 29 29 26 26 19 13 10 6 10 6 3 0 0 0 0 0 0 0 0 0 0 0 0 0 0 0 0 0 0 0 0 0 0 0 0 0 0 0 0 0 0 0
13 19 32 29 29 16 13 10 10 6 6 0 0 3 3 0 0 0 0 0 0 0 0 0 0 0 0 0 0 0 0 0 0 0 0 0 0 0 0 0 0 0 0
13 19 26 26 23 13 13 6 10 6 6 3 0 3 3 0 0 0 0 0 0 0 0 0 0 0 0 0 0 0 0 0 0 0 0 0 0 0 0 0 0 0 0
10 13 16 19 6 10 10 10 10 6 6 6 0 0 3 0 0 0 0 0 0 0 0 0 0 0 0 0 0 0 0 0 0 0 0 0 0 0 0 0 0 0 0
10 13 16 16 10 6 13 13 10 6 3 3 3 3 3 0 0 0 0 0 0 0 0 0 0 0 0 0 0 0 0 0 0 0 0 0 0 0 0 0 0 0 0
13 13 16 13 6 10 13 13 13 6 3 3 3 3 3 0 0 0 0 0 0 0 0 0 0 0 0 0 0 0 0 0 0 0 0 0 0 0 0 0 0 0 0
10 13 13 10 13 10 13 10 13 10 3 3 3 3 0 0 0 0 0 0 0 0 0 0 0 0 0 0 0 0 0 0 0 0 0 0 0 0 0 0 0 0 0
10 10 6 6 6 6 6 13 10 10 6 3 3 3 0 0 0 0 0 0 0 0 0 0 0 0 0 0 0 0 0 0 0 0 0 0 0 0 0 0 0 0 0
6 10 13 10 6 6 6 6 10 10 6 6 3 3 3 0 0 0 0 0 0 0 0 0 0 0 0 0 0 0 0 0 0 0 0 0 0 0 0 0 0 0 0
3 10 10 6 6 6 6 6 6 6 6 6 3 3 0 0 0 0 0 0 0 0 0 0 0 0 0 0 0 0 0 0 0 0 0 0 0 0 0 0 0 0 0
0 0 0 6 6 6 6 6 6 6 6 3 0 0 0 0 0 0 0 0 0 0 0 0 0 0 0 0 0 0 0 0 0 0 0 0 0 0 0 0 0 0 0
0 0 0 3 3 3 6 6 6 6 3 0 0 0 0 0 0 0 0 0 0 0 0 0 0 0 0 0 0 0 0 0 0 0 0 0 0 0 0 0 0 0 0
0 0 0 0 0 3 3 6 6 6 6 0 0 0 0 0 0 0 0 0 0 0 0 0 0 0 0 0 0 0 0 0 0 0 0 0 0 0 0 0 0 0 0
0 0 0 0 0 0 0 6 6 6 3 3 0 0 0 0 0 0 0 0 0 0 0 0 0 0 0 0 0 0 0 0 0 0 0 0 0 0 0 0 0 0 0
0 0 0 0 0 0 0 0 3 3 3 3 3 0 0 0 0 0 0 0 0 0 0 0 0 0 0 0 0 0 0 0 0 0 0 0 0 0 0 0 0 0 0
0 0 0 0 0 0 0 0 0 0 3 3 3 0 0 0 0 0 0 0 0 0 0 0 0 0 0 0 0 0 0 0 0 0 0 0 0 0 0 0 0 0 0
0 0 0 0 0 0 0 0 0 0 0 0 0 0 0 0 0 0 0 0 0 0 0 0 0 0 0 0 0 0 0 0 0 0 0 0 0 0 0 0 0 0 0
0 0 0 0 0 0 0 0 0 0 0 0 0 0 0 0 0 0 0 0 0 0 0 0 0 0 0 0 0 0 0 0 0 0 0 0 0 0 0 0 0 0 0
0 0 0 0 0 0 0 0 0 0 0 0 0 0 0 0 0 0 0 0 0 0 0 0 0 0 0 0 0 0 0 0 0 0 0 0 0 0 0 0 0 0 0
0 0 0 0 0 0 0 0 0 0 0 0 0 0 0 0 0 0 0 0 0 0 0 0 0 0 0 0 0 0 0 0 0 0 0 0 0 0 0 0 0 0 0
0 0 0 0 0 0 0 0 0 0 0 0 0 0 0 0 0 0 0 0 0 0 0 0 0 0 0 0 0 0 0 0 0 0 0 0 0 0 0 0 0 0 0
0 0 0 0 0 0 0 0 0 0 0 0 0 0 0 0 0 0 0 0 0 0 0 0 0 0 0 0 0 0 0 0 0 0 0 0 0 0 0 0 0 0 0
0 0 0 0 0 0 0 0 0 0 0 0 0 0 0 0 0 0 0 0 0 0 0 0 0 0 0 0 0 0 0 0 0 0 0 0 0 0 0 0 0 0 0
0 0 0 0 0 0 0 0 0 0 0 0 0 0 0 0 0 0 0 0 0 0 0 0 0 0 0 0 0 0 0 0 0 0 0 0 0 0 0 0 0 0 0

GEFSMW_con_cape1000_096.txt.gz
Probability
39 45 45 45 58 68 68 71 81 77 81 84 81 71 58 35 29 23 29 16 10 6 10 3 13 0 3 3 0 0 0 0 3 3 3 3 3 0 10 10 13 13 10
39 42 52 48 55 68 74 74 74 77 77 81 81 71 58 29 16 19 26 16 10 10 3 3 3 0 0 3 3 3 3 0 0 3 3 3 0 0 0 0 3 3 6
45 45 45 45 61 65 68 61 74 81 81 81 68 58 61 32 16 19 29 16 13 13 3 6 3 0 3 3 0 0 0 0 0 0 3 3 3 0 3 0 3 6 6
35 42 45 52 55 58 71 74 81 81 81 77 55 39 45 23 19 29 23 23 23 16 10 10 3 6 3 3 0 0 0 0 0 0 0 0 0 0 0 3 3 3 3
32 39 42 52 58 65 65 74 81 81 74 65 68 58 35 29 23 29 39 26 13 10 10 10 10 13 3 3 0 0 0 0 0 0 0 0 0 0 0 0 0 0 0
29 32 45 65 65 61 71 68 77 77 71 61 58 61 45 32 26 42 29 23 19 16 13 13 13 13 6 6 6 6 3 3 0 0 0 0 0 0 0 0 0 0 0
29 32 39 58 58 55 55 58 77 74 71 65 65 61 58 58 48 42 39 19 10 13 16 10 13 10 10 10 6 6 6 3 3 3 0 0 0 0 0 0 0 0 0
26 32 35 52 58 52 58 55 74 74 74 61 68 65 68 48 29 39 19 16 13 10 10 10 13 13 6 6 6 6 3 3 0 0 0 0 0 0 0 0 0 0 0
16 23 35 45 55 55 61 65 71 74 74 68 71 71 61 48 35 39 32 16 16 13 10 10 10 10 10 6 3 0 0 0 0 0 0 0 0 0 0 0 0 0 0
13 13 26 32 45 45 61 65 68 74 77 74 71 58 61 52 42 35 29 23 23 13 16 10 10 6 3 3 0 0 0 0 0 0 0 0 0 0 0 0 0 0 0
16 23 35 42 45 58 61 61 74 74 77 71 71 61 52 45 42 39 26 26 19 19 13 13 10 10 3 0 0 0 0 0 0 0 0 0 0 0 0 0 0 0 0
23 29 32 42 52 52 55 61 77 74 81 77 74 71 71 48 39 39 26 23 19 19 13 13 10 6 0 0 0 0 0 0 0 0 0 0 0 0 0 0 0 0 0
29 32 26 32 45 48 48 52 65 68 77 81 74 74 71 55 48 35 23 23 19 16 13 13 13 3 0 0 0 0 0 0 0 0 0 0 0 0 0 0 0 0 0
42 39 45 45 45 58 65 65 74 71 74 81 81 77 77 65 61 35 29 19 16 16 16 13 10 6 0 0 0 0 0 0 0 0 0 0 0 0 0 0 0 0 0
52 48 48 58 55 61 77 81 81 81 84 87 84 81 77 71 58 42 29 16 16 13 13 10 6 3 0 0 0 0 0 0 0 0 0 0 0 0 0 0 0 0 0
39 52 58 61 71 84 81 84 90 87 87 84 81 81 81 61 48 42 23 16 13 13 13 10 10 0 0 0 0 0 0 0 0 0 0 0 0 0 0 0 0 0 0
26 42 58 71 74 81 77 81 84 81 84 77 71 71 68 48 39 29 16 16 16 16 13 13 6 3 0 0 0 0 0 0 0 0 0 0 0 0 0 0 0 0 0
16 29 32 45 55 65 81 84 81 81 77 71 55 55 48 35 32 23 13 19 23 23 19 19 10 10 0 0 0 0 0 0 0 0 0 0 0 0 0 0 0 0 0
13 26 29 23 39 39 58 71 68 65 61 55 55 48 35 32 29 26 26 19 23 19 16 13 10 13 0 0 0 0 0 0 0 0 0 0 0 0 0 0 0 0 0
16 23 23 26 35 32 35 45 42 55 45 39 45 39 29 32 29 29 35 32 35 29 13 6 6 6 10 0 0 0 0 0 0 0 0 0 0 0 0 0 0 0 0
3 6 10 10 16 16 29 35 35 26 23 16 23 29 26 26 26 29 35 32 19 16 10 6 10 13 0 0 0 0 0 0 0 0 0 0 0 0 0 0 0 0 0
0 0 3 3 3 10 10 13 13 3 3 0 6 6 10 6 3 13 16 16 16 16 10 10 3 3 3 0 0 0 0 0 0 0 0 0 0 0 0 0 0 0 0
0 3 3 0 0 0 0 3 3 3 3 0 0 0 0 6 3 6 10 6 6 0 0 0 0 0 3 0 0 0 0 0 0 0 0 0 0 0 0 0 0 0 0
0 0 3 0 0 0 0 0 0 0 0 0 0 0 0 0 0 0 0 0 0 0 0 0 3 6 3 0 0 3 0 0 0 0 0 0 0 0 0 0 0 0 0
0 0 0 0 0 0 0 0 0 0 0 0 0 0 0 0 0 0 0 0 0 0 0 3 6 3 3 0 0 0 3 0 0 0 0 3 0 0 3 3 3 6 0
0 0 0 0 0 0 0 0 0 0 0 0 0 0 0 0 0 0 0 0 0 0 0 0 0 0 0 0 0 0 0 0 0 0 0 0 0 0 3 0 3 6 3

GEFSMW_con_cape1000_102.txt.gz
Probability
61 58 61 61 58 71 77 74 77 81 81 71 74 71 77 74 77 61 55 39 32 23 32 23 35 23 29 19 13 19 6 0 0 0 3 3 3 10 13 16 23 19 13
55 58 58 65 65 68 68 77 74 74 81 74 74 74 74 71 68 61 55 35 32 32 19 26 29 32 35 16 13 3 6 3 0 0 0 0 3 0 0 6 10 16 16
48 45 55 58 61 65 68 71 74 71 71 71 71 68 84 77 65 61 52 39 32 26 29 26 19 23 29 23 13 6 3 3 3 0 0 0 3 3 3 0 0 3 10
45 42 42 58 65 68 61 65 74 74 77 77 71 68 58 61 61 65 52 48 35 32 23 23 26 23 23 23 13 6 6 6 3 6 3 0 3 0 3 6 0 6 6
48 42 48 61 61 61 58 71 81 84 87 87 84 74 65 58 65 58 68 58 48 39 26 23 29 26 26 26 13 16 6 6 6 3 3 0 0 0 0 0 0 0 3
48 48 52 55 61 58 61 65 81 84 90 87 90 87 74 71 61 61 65 61 58 45 35 23 23 23 26 26 19 16 13 13 6 10 6 6 0 0 0 0 0 0 0
39 55 58 55 58 58 58 65 77 87 84 87 87 84 84 74 71 68 61 61 58 48 45 23 39 35 23 23 19 16 16 13 13 13 13 6 3 0 0 0 0 0 0
55 48 61 65 65 61 61 68 81 87 81 81 87 87 84 74 71 74 65 65 61 52 52 45 42 35 26 19 19 19 16 13 13 6 10 6 0 3 0 0 0 0 0
42 48 61 71 65 68 71 68 77 84 81 77 87 87 87 74 74 84 74 55 58 42 52 39 39 39 29 16 23 16 13 16 13 10 10 3 0 0 3 3 3 0 0
26 48 58 65 71 68 77 81 81 81 84 84 81 74 90 97 84 84 58 65 61 39 39 32 39 39 32 23 23 16 16 10 13 13 10 6 0 0 0 0 3 0 0
23 32 61 58 61 68 77 81 87 84 84 84 90 87 87 84 84 74 74 61 58 48 39 32 29 29 32 26 23 13 16 13 10 6 3 6 3 0 3 3 0 0 0
26 42 52 55 55 68 74 77 87 87 84 90 90 84 94 87 81 71 77 74 65 52 42 35 32 26 19 29 23 13 10 6 6 6 6 6 0 6 0 0 0 0 3
29 35 61 58 61 74 77 81 87 87 87 87 94 90 97 90 90 87 81 77 74 55 45 42 35 29 23 26 23 19 13 6 6 6 6 6 3 6 3 3 0 0 0
71 58 74 74 68 77 90 90 90 84 87 81 84 94 94 94 94 94 84 77 74 58 48 52 42 29 29 29 26 23 16 13 13 6 6 3 3 6 10 3 6 3 0
77 84 81 84 84 84 97 97 94 87 84 84 84 94 90 94 90 90 84 77 71 39 55 48 45 42 29 13 26 29 10 13 16 13 13 6 3 3 3 0 3 3 0
74 84 90 87 90 94 90 87 87 94 90 94 90 90 90 90 87 90 90 81 68 55 58 45 42 35 13 3 0 16 16 23 16 10 13 13 3 0 0 0 0 0 0
74 81 97 94 90 90 90 94 90 90 97 90 90 90 90 90 87 77 74 74 71 68 61 58 45 42 29 0 0 0 10 13 16 16 23 3 0 0 0 0 0 0 0
74 81 84 84 84 87 84 84 81 90 94 90 87 87 87 87 87 87 81 84 77 74 71 68 61 58 32 3 0 0 0 3 3 0 13 26 16 3 3 3 0 0 0
77 74 74 77 74 81 77 74 68 71 77 74 74 71 74 84 84 81 81 84 74 68 65 61 65 61 39 6 0 0 0 0 0 0 0 6 10 0 0 0 0 0 0
48 55 52 61 65 65 61 65 55 58 58 58 58 65 65 65 65 74 74 74 71 68 58 52 58 58 58 6 0 0 0 0 0 0 3 0 0 0 0 0 0 0 0
32 32 32 32 42 45 52 52 48 45 45 48 52 55 55 52 52 55 58 58 52 48 52 45 45 55 52 16 0 0 0 0 0 0 3 0 0 0 0 0 0 0 0
23 26 23 23 23 23 23 26 26 26 29 39 42 42 42 29 32 45 48 45 45 42 45 45 42 42 32 6 0 0 0 0 0 0 3 0 0 0 0 0 0 0 0
19 19 16 16 13 13 16 13 16 19 19 19 19 23 26 26 26 23 32 39 39 35 29 29 26 16 16 6 0 0 0 0 0 0 0 0 0 0 0 0 0 0 0
13 13 13 13 13 10 10 6 6 10 13 6 6 10 10 6 16 16 13 13 10 10 6 3 10 10 3 0 0 0 0 0 0 0 0 0 0 0 0 0 0 0 0
6 3 3 3 0 0 0 0 3 3 3 3 6 6 6 6 6 6 6 3 3 3 3 3 6 6 3 0 0 0 0 0 0 0 0 0 0 0 0 0 0 0 0
3 3 0 0 0 0 0 0 0 0 3 0 0 0 3 3 3 3 3 0 0 0 0 0 0 0 0 0 0 0 0 0 0 0 0 0 0 0 0 0 0 0 0

GEFSMW_con_cape1000_108.txt.gz
Probability
26 23 32 39 35 29 35 42 42 32 26 26 19 10 13 3 3 6 6 0 3 3 0 0 0 0 0 0 0 0 0 0 0 0 0 0 0 0 0 0 0 0 3
23 23 26 29 29 26 32 42 39 32 26 26 13 3 6 3 6 6 6 6 6 6 6 0 0 0 0 0 0 0 0 0 0 0 0 0 0 0 0 0 0 0 0
26 23 26 26 29 29 29 32 29 29 23 26 16 3 3 3 0 3 6 6 6 6 3 0 0 0 0 0 0 0 0 0 0 0 0 0 0 0 0 0 0 0 0
23 19 26 32 32 32 29 35 29 23 23 19 13 6 3 3 0 3 3 3 6 6 3 0 0 0 0 0 0 0 0 0 0 0 0 0 0 0 0 0 0 0 0
23 23 19 35 39 29 32 32 29 23 23 23 10 6 3 3 0 3 3 3 3 6 3 0 0 0 0 0 0 0 0 0 0 0 0 0 0 0 0 0 0 0 0
23 23 26 29 39 32 32 32 29 23 26 16 6 6 6 3 0 3 3 3 0 3 0 0 0 0 0 0 0 0 0 0 0 0 0 0 0 0 0 0 0 0 0
26 26 29 29 32 39 39 29 23 26 23 13 6 6 6 3 3 3 3 0 0 3 3 3 0 0 0 0 0 0 0 0 0 0 0 0 0 0 0 0 0 0 0
23 29 29 23 32 39 39 29 26 19 16 13 10 6 6 6 6 3 3 3 3 3 3 3 3 3 0 0 0 0 0 0 0 0 0 0 0 0 0 0 0 0 0
19 23 23 26 32 32 35 29 23 19 16 16 13 10 10 6 6 3 3 3 3 3 3 3 3 3 3 3 0 0 0 0 0 0 0 0 0 0 0 0 0 0 0
16 26 26 26 32 32 29 35 29 16 16 16 13 13 13 10 6 3 3 3 3 3 3 3 3 3 3 3 0 0 0 0 0 0 0 0 0 0 0 0 0 0 0
13 19 23 26 26 26 32 32 29 16 19 19 13 13 13 10 6 6 6 3 3 3 3 3 3 3 3 3 3 3 0 0 0 0 0 0 0 0 0 0 0 0 0
10 19 23 19 26 23 26 29 23 23 23 26 16 13 13 10 6 6 6 3 3 3 3 3 3 3 3 3 3 3 3 0 0 0 0 0 0 0 0 0 0 0 0
3 10 16 19 26 26 29 29 32 26 29 32 19 13 10 10 13 6 6 6 3 6 3 3 3 3 3 3 3 3 3 0 0 0 0 0 0 0 0 0 0 0 0
10 3 10 19 26 26 26 35 42 42 32 29 26 13 16 13 13 13 10 6 3 3 3 6 6 6 6 3 3 3 3 0 0 0 0 0 0 0 0 0 0 0 0
6 6 6 19 16 23 29 35 35 29 29 26 23 19 10 10 10 13 19 16 19 13 10 6 6 6 6 6 3 3 3 0 0 0 0 0 0 0 0 0 0 0 0
6 6 6 3 16 13 19 29 26 19 23 29 26 19 19 19 19 23 26 23 19 19 13 10 6 3 3 3 0 0 0 0 0 0 0 0 0 0 0 0 0 0 0
6 3 0 6 10 26 19 16 19 19 19 23 23 19 19 26 26 26 26 23 23 16 6 0 0 0 0 0 0 0 0 0 0 0 0 0 0 0 0 0 0 0 0
0 0 0 3 3 10 6 13 16 19 16 16 19 23 23 26 26 23 26 23 16 10 3 0 0 0 0 0 0 0 0 0 0 0 0 0 0 0 0 0 0 0 0
3 0 0 0 0 0 0 0 6 13 10 10 10 16 16 6 10 16 16 16 3 6 3 0 0 0 0 0 0 0 0 0 0 0 0 0 0 0 0 0 0 0 0
0 0 0 0 3 0 3 0 0 3 3 10 10 6 3 10 3 10 10 3 0 0 0 0 0 0 0 0 0 0 0 0 0 0 0 0 0 0 0 0 0 0 0
0 0 3 3 3 0 0 0 0 0 0 3 3 3 0 0 3 3 3 0 3 3 6 3 0 0 0 0 0 0 0 0 0 0 0 0 0 0 0 0 0 0 0
0 0 0 0 0 0 0 0 0 0 0 0 3 3 3 3 3 3 0 0 0 0 0 0 0 0 0 0 0 0 0 0 0 0 0 0 0 0 0 0 0 0 0
0 0 0 0 0 0 0 0 0 0 0 0 0 0 0 0 0 0 0 0 0 0 0 0 0 0 0 0 0 0 0 0 0 0 0 0 0 0 0 0 0 0 0
0 0 0 0 0 0 0 0 0 0 0 0 0 0 0 0 0 0 0 0 0 0 0 0 0 0 0 0 0 0 0 0 0 0 0 0 0 0 0 0 0 0 0
0 0 0 0 0 0 0 0 0 0 0 0 0 0 0 0 0 0 0 0 0 0 0 0 0 0 0 0 0 0 0 0 0 0 0 0 0 0 0 0 0 0 0
0 0 0 0 0 0 0 0 0 0 0 0 0 0 0 0 0 0 0 0 0 0 0 0 0 0 0 0 0 0 0 0 0 0 0 0 0 0 0 0 0 0 0

GEFSMW_con_cape1000_114.txt.gz
Probability
16 16 16 23 32 26 23 29 29 26 19 19 13 10 3 0 0 3 3 0 0 0 0 0 0 0 0 0 0 0 0 0 0 0 0 0 0 0 0 0 0 0 3
10 19 16 23 29 29 29 26 26 23 23 23 13 3 3 0 0 3 3 0 0 0 0 0 0 0 0 0 0 0 0 0 0 0 0 0 0 0 0 0 0 0 0
10 10 19 23 29 29 29 29 26 23 23 10 3 3 0 0 3 3 3 0 0 0 0 0 0 0 0 0 0 0 0 0 0 0 0 0 0 0 0 0 0 0 0
6 13 16 16 26 29 26 26 23 19 13 6 3 3 3 3 3 0 3 3 3 3 3 0 0 0 0 0 0 0 0 0 0 0 0 0 0 0 0 0 0 0 0
3 13 16 16 19 19 26 23 23 16 6 3 3 3 3 3 0 0 0 3 3 3 3 3 0 0 0 0 0 0 0 0 0 0 0 0 0 0 0 0 0 0 0
6 10 13 16 19 19 26 26 19 13 6 6 3 3 3 3 0 0 0 0 0 0 0 3 3 0 0 0 0 0 0 0 0 0 0 0 0 0 0 0 0 0 0
10 6 10 13 16 16 23 26 16 10 6 6 6 6 3 3 3 3 3 3 0 0 0 0 3 0 0 0 0 0 0 0 0 0 0 0 0 0 0 0 0 0 0
6 6 10 10 10 16 19 23 19 13 6 6 6 6 3 3 3 3 3 3 3 3 0 0 0 0 0 0 0 0 0 0 0 0 0 0 0 0 0 0 0 0 0
10 10 10 13 13 23 26 26 23 13 10 10 10 6 6 3 3 3 3 3 3 3 0 0 0 0 0 0 0 0 0 0 0 0 0 0 0 0 0 0 0 0 0
6 10 10 10 16 19 26 23 19 13 10 10 13 10 6 6 3 3 3 3 3 3 3 0 3 3 3 3 0 0 0 0 0 0 0 0 0 0 0 0 0 0 0
3 3 6 6 10 16 23 19 16 10 10 10 10 10 10 6 6 3 3 3 3 3 3 3 3 3 3 3 3 3 3 0 0 0 0 0 0 0 0 0 0 0 0
3 6 10 13 13 13 16 16 16 13 13 13 10 10 10 6 6 6 6 3 3 3 3 3 3 3 3 3 0 3 3 0 0 0 0 0 0 0 0 0 0 0 0
0 3 3 6 10 10 13 16 13 10 10 16 10 10 10 10 10 6 6 3 3 3 3 3 3 3 3 3 3 3 3 3 3 0 0 0 0 0 0 0 0 0 0
0 3 6 6 10 6 10 6 6 10 10 10 10 10 10 10 10 10 6 6 3 3 3 3 3 3 3 3 3 3 3 3 3 3 0 0 0 0 0 0 0 0 0
0 0 3 3 6 6 3 10 10 3 6 10 10 6 6 10 10 6 6 3 3 0 3 3 3 3 3 3 0 0 0 3 3 3 0 0 0 0 0 0 0 0 0
0 0 0 0 0 3 6 10 10 3 3 6 10 10 6 6 6 6 3 3 3 6 6 3 3 0 0 0 0 0 0 0 0 0 0 0 0 0 0 0 0 0 0
0 0 0 0 0 0 6 10 10 6 3 6 13 6 6 3 3 3 3 3 3 3 3 0 0 0 0 0 0 0 0 0 0 0 0 0 0 0 0 0 0 0 0
0 0 0 0 0 0 0 3 3 3 3 6 10 3 3 3 3 3 0 3 3 6 3 0 0 0 0 0 0 0 0 0 0 0 0 0 0 0 0 0 0 0 0
0 0 0 0 0 0 0 3 3 3 6 6 6 6 3 3 3 3 3 0 0 0 0 0 0 0 0 0 0 0 0 0 0 0 0 0 0 0 0 0 0 0 0
0 0 0 0 0 0 0 0 0 6 6 3 6 3 3 3 3 3 0 0 0 0 0 0 0 0 0 0 0 0 0 0 0 0 0 0 0 0 0 0 0 0 0
0 0 0 0 0 0 0 0 0 0 0 0 0 0 0 0 0 0 0 0 0 0 0 0 0 0 0 0 0 0 0 0 0 0 0 0 0 0 0 0 0 0 0
0 0 0 0 0 0 0 0 0 0 0 0 0 0 0 0 0 0 0 0 0 0 0 0 0 0 0 0 0 0 0 0 0 0 0 0 0 0 0 0 0 0 0
0 0 0 0 0 0 0 0 0 0 0 0 0 0 0 0 0 0 0 0 0 0 0 0 0 0 0 0 0 0 0 0 0 0 0 0 0 0 0 0 0 0 0
0 0 0 0 0 0 0 0 0 0 0 0 0 0 0 0 0 0 0 0 0 0 0 0 0 0 0 0 0 0 0 0 0 0 0 0 0 0 0 0 0 0 0
0 0 0 0 0 0 0 0 0 0 0 0 0 0 0 0 0 0 0 0 0 0 0 0 0 0 0 0 0 0 0 0 0 0 0 0 0 0 0 0 0 0 0
0 0 0 0 0 0 0 0 0 0 0 0 0 0 0 0 0 0 0 0 0 0 0 0 0 0 0 0 0 0 0 0 0 0 0 0 0 0 0 0 0 0 0

GEFSMW_con_cape1000_120.txt.gz
Probability
61 68 61 61 55 52 58 55 55 55 58 68 71 84 87 84 77 68 61 52 48 45 42 23 35 29 16 19 19 16 13 19 10 0 6 3 3 6 13 16 19 16 13
55 55 58 58 55 52 52 55 55 55 55 65 77 81 84 74 65 52 58 48 42 39 23 29 29 23 35 26 19 19 16 6 6 3 6 6 6 10 0 16 16 13 10
58 58 55 55 48 48 48 48 52 58 58 68 68 74 77 58 48 48 58 45 35 29 26 29 16 19 19 19 26 23 13 6 3 0 3 3 6 10 3 6 10 16 19
32 45 52 45 39 42 39 52 58 61 58 55 61 68 65 55 48 52 45 45 32 29 23 19 19 19 16 23 23 19 16 10 3 0 0 0 0 0 6 0 0 3 6
32 39 48 39 35 32 32 39 48 61 61 55 58 68 58 52 45 39 55 48 32 26 19 19 23 19 13 19 16 19 19 0 0 0 0 0 0 0 0 3 0 0 0
23 35 39 35 32 29 29 32 39 61 58 55 58 65 61 55 32 39 42 35 32 26 19 19 23 19 13 19 13 19 16 10 6 0 0 0 0 0 0 0 0 3 3
32 39 39 39 32 35 35 35 42 45 52 48 45 52 55 58 48 29 39 29 23 26 26 16 19 16 19 13 16 19 13 10 10 10 3 0 3 3 0 0 0 3 0
32 35 39 35 35 39 35 39 42 42 45 48 58 55 58 52 29 42 32 23 19 19 19 19 16 19 19 16 19 16 16 16 16 6 6 6 6 3 3 3 3 0 0
39 35 35 35 39 39 39 32 42 48 48 48 61 61 58 55 42 48 52 26 35 19 19 16 23 23 23 23 26 23 19 19 13 6 10 3 3 3 0 0 0 0 0
32 35 35 35 42 42 45 39 45 48 48 58 55 45 58 55 55 52 35 32 35 26 23 16 16 26 29 32 35 23 19 16 23 19 13 13 3 3 3 0 0 0 0
39 39 35 32 39 48 48 48 52 55 55 65 65 58 61 61 52 52 35 42 45 45 39 32 23 23 26 35 42 23 23 16 16 16 13 13 10 6 3 6 0 0 0
42 48 45 39 45 42 45 48 52 61 61 68 71 71 68 65 45 42 45 48 58 58 58 48 45 26 23 35 32 32 23 23 23 19 19 16 13 13 10 10 6 3 3
39 48 48 52 52 48 52 48 52 55 58 71 71 74 68 61 65 55 55 65 68 61 55 58 45 39 26 29 29 29 32 29 26 26 19 19 13 13 10 13 10 3 3
52 55 52 52 52 55 55 55 48 55 55 58 58 61 71 71 71 71 71 65 68 65 58 52 55 45 39 32 32 29 35 39 29 23 23 16 13 13 13 16 16 13 10
55 48 52 61 58 48 48 45 45 48 55 52 55 61 68 68 65 65 65 68 65 45 65 52 48 42 42 26 35 35 29 35 35 26 23 13 6 3 10 3 10 16 13
45 45 42 45 45 42 48 45 48 48 58 58 52 58 61 65 65 61 68 61 65 65 58 55 52 39 16 3 0 3 32 35 35 23 19 16 3 0 0 0 0 0 3
39 48 52 52 48 48 45 52 48 55 55 52 52 55 58 58 61 52 58 65 58 65 61 48 42 39 32 0 0 0 6 26 32 32 29 6 0 0 3 0 0 0 0
39 39 48 45 45 42 45 48 48 52 52 55 52 48 48 45 52 55 55 61 58 58 48 42 39 35 16 0 0 0 0 10 19 23 19 23 19 3 0 0 0 3 3
26 29 29 32 42 48 48 45 45 48 48 42 45 48 45 45 42 48 48 52 45 45 45 39 35 32 16 0 0 0 0 6 13 10 10 13 10 0 0 0 6 6 10
19 26 32 39 42 39 45 45 32 29 35 32 35 42 42 42 39 35 35 42 35 32 32 26 26 19 19 3 0 0 6 10 10 19 10 0 0 0 0 0 0 0 3
16 23 23 23 29 35 39 32 29 32 26 26 23 26 29 29 29 32 35 29 19 16 19 13 13 13 10 3 0 0 3 0 6 13 6 6 0 0 0 0 0 0 0
13 16 19 19 19 26 26 26 23 23 26 26 26 26 23 16 13 13 13 10 13 10 10 6 10 3 6 0 0 0 0 0 0 0 0 0 0 0 0 0 0 0 0
10 10 6 10 10 13 16 16 10 10 10 6 6 6 6 6 6 6 3 6 6 6 6 6 6 6 6 3 0 0 0 0 0 0 0 0 0 0 0 0 0 0 0
0 0 0 0 0 0 3 3 6 6 6 6 6 6 6 3 3 3 3 3 3 3 3 3 3 3 3 3 0 0 0 0 0 0 0 0 0 0 0 0 0 0 0
0 0 0 0 0 0 0 0 3 6 6 6 6 6 3 3 0 0 0 0 0 0 0 0 0 3 0 0 0 0 0 0 0 0 0 0 0 0 0 0 0 0 0
0 0 0 0 0 0 0 0 0 3 6 6 6 3 0 0 0 0 0 0 0 0 0 0 0 0 0 0 0 0 0 0 0 0 0 0 0 0 0 0 0 0 0

GEFSMW_con_cape1000_126.txt.gz
Probability
84 81 77 77 74 71 74 74 68 61 55 58 58 61 71 77 77 84 77 71 68 68 68 68 65 55 61 68 52 48 45 45 52 32 23 35 23 32 45 42 35 32 42
81 81 81 74 74 71 71 71 68 61 61 61 58 61 71 77 77 77 74 74 71 68 45 61 61 58 65 55 52 48 48 45 29 29 10 13 13 26 13 32 35 26 42
77 77 74 74 71 71 65 55 61 52 58 52 48 58 71 74 74 81 74 71 65 61 61 58 45 61 58 61 52 48 29 42 26 26 13 0 10 6 16 23 35 32 32
68 68 74 71 65 68 58 52 58 52 52 55 45 55 58 65 74 84 81 74 65 52 48 42 35 45 52 68 48 35 42 39 35 32 29 19 23 13 16 16 19 19 23
58 65 65 68 61 52 52 52 48 48 52 52 55 61 65 74 74 81 77 71 65 52 45 42 35 32 45 52 42 52 32 42 39 35 29 16 29 6 3 10 6 10 16
52 77 65 52 55 52 52 48 52 52 58 58 55 61 61 74 74 77 68 68 65 48 42 39 39 35 42 39 35 35 26 42 48 48 29 16 19 13 6 16 16 10 13
48 61 58 58 52 48 48 48 52 58 55 55 61 65 71 74 77 77 58 48 48 58 58 32 39 35 35 35 32 39 39 35 19 26 42 35 16 19 16 13 13 16 23
45 52 65 65 58 48 48 45 52 55 55 58 58 61 74 68 65 71 55 58 45 45 48 48 52 32 26 19 39 39 35 35 29 16 32 42 32 23 16 19 13 10 10
39 45 58 61 55 52 55 55 58 61 61 58 65 61 68 68 65 74 71 45 61 39 42 52 48 35 42 32 42 42 39 39 32 39 42 32 29 23 16 16 16 13 3
35 42 45 58 55 52 58 55 58 61 65 61 55 42 61 61 65 68 65 61 55 55 48 45 42 35 35 35 35 42 32 26 39 42 42 26 23 26 19 13 13 23 16
32 42 42 52 58 65 58 65 65 71 61 61 61 58 55 61 61 71 65 68 68 68 55 55 52 55 45 48 58 45 48 39 39 29 29 32 26 19 23 13 13 13 13
45 52 52 55 58 61 55 61 58 58 61 61 61 61 65 61 68 65 68 68 65 68 61 58 55 55 45 65 65 48 39 42 42 39 32 32 19 23 19 19 16 16 19
58 58 58 58 65 68 65 58 55 55 58 65 68 74 65 68 71 74 65 65 68 65 65 68 58 65 65 74 71 61 55 48 39 42 32 29 26 29 26 26 16 13 6
61 61 65 65 71 68 61 52 48 48 48 58 61 68 77 68 65 65 58 68 65 65 65 61 58 55 55 55 55 61 55 55 48 42 42 45 32 29 35 16 29 16 16
55 55 58 61 65 61 58 52 48 55 58 58 58 55 58 58 61 61 58 58 65 61 61 52 55 48 45 39 45 48 45 55 48 45 45 35 23 16 10 3 16 13 19
61 55 48 55 55 65 55 58 58 58 61 55 55 48 52 48 58 58 58 61 61 65 58 52 48 42 32 3 0 19 35 52 52 48 52 39 23 3 0 0 0 0 3
55 55 52 52 61 58 58 48 52 58 58 55 55 55 55 58 58 58 58 65 65 68 65 55 52 42 26 3 0 0 19 39 42 48 48 23 10 0 10 0 0 0 0
55 61 61 58 58 61 55 55 48 52 55 55 55 58 55 55 58 58 58 58 58 58 65 55 48 39 23 3 0 0 0 13 23 32 35 29 26 10 10 6 3 0 0
58 61 55 48 55 55 52 55 48 45 52 52 52 52 52 48 55 52 52 55 55 52 55 48 48 35 19 6 0 0 3 6 10 16 16 16 13 6 0 0 3 3 3
52 52 52 55 55 48 52 55 52 45 45 48 52 48 48 45 45 48 48 55 55 52 48 35 29 26 19 3 0 0 0 3 13 16 13 0 0 0 0 0 3 3 3
35 39 45 48 52 52 52 52 52 48 52 52 48 48 48 48 48 48 48 52 52 42 26 23 19 19 6 3 0 0 0 3 3 3 3 3 0 0 0 0 0 0 0
26 29 35 35 35 45 45 42 42 42 48 39 32 26 26 26 29 35 45 45 32 23 16 16 10 10 0 0 0 0 0 0 0 0 0 0 0 0 0 0 0 0 0
19 19 23 19 19 23 26 23 23 19 19 19 19 19 16 19 26 26 23 23 23 10 3 3 0 0 0 0 0 0 0 0 0 0 0 0 0 0 0 0 0 0 0
3 10 13 10 10 13 10 10 10 10 10 10 10 10 3 3 6 6 3 6 3 3 6 3 0 0 0 0 0 0 0 0 0 0 0 0 0 0 0 0 0 0 0
3 6 6 3 3 6 10 10 6 6 6 6 3 3 3 3 0 0 0 0 0 0 0 0 3 0 0 0 0 0 0 0 0 0 0 0 0 0 0 0 0 0 0
3 0 0 0 0 0 0 6 6 6 6 3 3 3 0 0 0 0 0 0 0 0 0 0 0 0 0 0 0 0 0 0 0 0 0 0 0 0 0 0 0 0 0